This is the latest recevied weather packets stored in our database for station/object LU1DAQ-10. If no packets are shown the sender has not sent any weather packets the latest 1 day(s).
| Time | Temp. | Humidity | Pressure | Rain* | Wind** | Luminosity | Snow |
|---|---|---|---|---|---|---|---|
| 1777888566 | 22.78° C | 37% | 1006.4 hPa | - | - | - | - |
| 1777887666 | 22.78° C | 37% | 1006.3 hPa | - | - | - | - |
| 1777886766 | 22.78° C | 37% | 1006.2 hPa | - | - | - | - |
| 1777885866 | 23.33° C | 36% | 1006.1 hPa | - | - | - | - |
| 1777884966 | 23.33° C | 36% | 1005.9 hPa | - | - | - | - |
| 1777884066 | 23.33° C | 37% | 1005.9 hPa | - | - | - | - |
| 1777883166 | 23.33° C | 36% | 1005.6 hPa | - | - | - | - |
| 1777882266 | 23.33° C | 36% | 1005.7 hPa | - | - | - | - |
| 1777881365 | 23.89° C | 36% | 1005.6 hPa | - | - | - | - |
| 1777880464 | 25° C | 34% | 1005.5 hPa | - | - | - | - |
| 1777879567 | 25° C | 34% | 1005.5 hPa | - | - | - | - |
| 1777878667 | 25° C | 34% | 1006 hPa | - | - | - | - |
| 1777877767 | 25.56° C | 33% | 1005.9 hPa | - | - | - | - |
| 1777876867 | 25.56° C | 33% | 1005.9 hPa | - | - | - | - |
| 1777875967 | 25.56° C | 32% | 1006 hPa | - | - | - | - |
| 1777875067 | 26.11° C | 32% | 1005.9 hPa | - | - | - | - |
| 1777874167 | 26.11° C | 32% | 1005.9 hPa | - | - | - | - |
| 1777873267 | 26.11° C | 33% | 1005.8 hPa | - | - | - | - |
| 1777872367 | 23.33° C | 37% | 1005.9 hPa | - | - | - | - |
| 1777871467 | 23.33° C | 37% | 1006.3 hPa | - | - | - | - |
| 1777870566 | 23.33° C | 37% | 1006.1 hPa | - | - | - | - |
| 1777869666 | 23.33° C | 38% | 1006 hPa | - | - | - | - |
| 1777868766 | 23.33° C | 37% | 1006 hPa | - | - | - | - |
| 1777867866 | 23.33° C | 37% | 1006.1 hPa | - | - | - | - |
| 1777866966 | 23.33° C | 37% | 1005.9 hPa | - | - | - | - |
* Rain since midnight (hover to see other rain measurements)
** Current wind speed in m/s (hover to see current wind gust speed)